Regional Weather Roundup
Issued by NWS Little Rock, AR

Home | Current Version | Previous Version | Graphics & Text | Print | Product List | Glossary On
Versions: 1 2 3 4 5 6 7 8 9 10 11 12 13 14 15 16 17 18 19 20 21 22 23 24 25 26 27 28 29 30 31 32 33 34 35 36 37 38 39 40 41 42 43 44 45 46 47 48 49 50
190
ASUS44 KLZK 242005
RWRLZK

WEATHER ROUNDUP FOR ARKANSAS
NATIONAL WEATHER SERVICE LITTLE ROCK AR
300 PM CDT SUN JUL 24 2016

NOTE: "FAIR" INDICATES FEW OR NO CLOUDS BELOW 12,000 FEET WITH NO
SIGNIFICANT WEATHER AND/OR OBSTRUCTIONS TO VISIBILITY.

ARZ001-003-010-029-242100-
NORTHWEST ARKANSAS

CITY           SKY/WX    TMP DP  RH WIND       PRES   REMARKS
FAYETTEVILLE   PTSUNNY   94  75  54 N3        29.98F HX 105
FORT SMITH     SUNNY     98  70  40 VRB3      29.92F HX 105
HARRISON       MOSUNNY   95  74  50 CALM      29.99F HX 105
BENTONVILLE    PTSUNNY   91  72  52 W3        30.00F HX  98
ROGERS         MOSUNNY   93  75  55 NW6       30.00F HX 104
SILOAM SPGS    MOSUNNY   93  70  46 CALM      30.00F HX  99
HIGHFILL       MOSUNNY   95  74  50 VRB5      29.98F HX 105
SPRINGDALE     PTSUNNY   93  73  52 NW6       30.00F HX 102
$$

ARZ004-005-016-242100-
NORTH CENTRAL ARKANSAS

CITY           SKY/WX    TMP DP  RH WIND       PRES   REMARKS
BATESVILLE     SUNNY     93  77  59 NE7       29.94F HX 107
FLIPPIN        PTSUNNY   93  75  55 CALM      29.93F HX 104
MTN HOME       PTSUNNY   92  76  59 SW5       29.95F HX 104
$$

ARZ040-041-242100-
WEST CENTRAL ARKANSAS

CITY           SKY/WX    TMP DP  RH WIND       PRES   REMARKS
MENA           MOSUNNY   95  77  55 W5        29.97F HX 109
MOUNT IDA      SUNNY     96  73  47 CALM      29.94F HX 105
$$

ARZ009-017-025-026-028-242100-
NORTHEAST ARKANSAS

CITY           SKY/WX    TMP DP  RH WIND       PRES   REMARKS
CORNING          N/A     90  77  66 CALM      29.96F HX 102
JONESBORO      PTSUNNY   90  75  61 VRB6      29.95F HX 100
NEWPORT        SUNNY     95  75  52 S9        29.95F HX 106
WALNUT RIDGE   MOSUNNY   91  75  59 E6        29.94F HX 102
BLYTHEVILLE    MOSUNNY   90  77  65 CALM      29.96F HX 103
$$

ARZ022-023-033-042-044-242100-
CENTRAL ARKANSAS

CITY           SKY/WX    TMP DP  RH WIND       PRES   REMARKS
LITTLE ROCK    PTSUNNY   94  75  54 S7        29.94F HX 105
N LITTLE ROCK    N/A     93  78  61 CALM      29.91F HX 108
JACKSONVILLE   CLOUDY    91  78  65 E5        29.93F HX 106
SEARCY         CLOUDY    92  80  68 SE8       29.96F HX 110
HOT SPRINGS    PTSUNNY   88  75  65 S6        29.96F HX  97
RUSSELLVILLE   SUNNY     93  74  53 CALM      29.93F HX 103
$$

ARZ036-242100-
EAST ARKANSAS

CITY           SKY/WX    TMP DP  RH WIND       PRES   REMARKS
WEST MEMPHIS   PTSUNNY   84  74  71 S6        29.97F HX  91
$$

ARZ050-053-066-070-073-242100-
SOUTHWEST ARKANSAS

CITY           SKY/WX    TMP DP  RH WIND       PRES   REMARKS
CAMDEN         PTSUNNY   93  73  52 NE3       29.92F HX 102
TEXARKANA      MOSUNNY   94  73  50 NE3       29.94F THUNDER HX 103
EL DORADO      SUNNY     96  74  48 W8        29.93F HX 107
DE QUEEN       MOSUNNY   97  73  45 SE6       29.91F HX 107
$$

ARZ056-057-069-242100-
SOUTHEAST ARKANSAS

CITY           SKY/WX    TMP DP  RH WIND       PRES   REMARKS
PINE BLUFF     MOSUNNY   92  71  50 CALM      29.95F HX  98
STUTTGART      CLOUDY    91  73  55 S5        29.95F HX 100
MONTICELLO     PTSUNNY   95  76  53 CALM      29.93F HX 108

$$






USA.gov is the U.S. government's official web portal to all federal, state and local government web resources and services.